[[{"header":{"parameterUnit":"m.s-1","parameterCategory":1,"la1":30.2991,"la2":30.254,"lo1":-89.0895,"lo2":-89.0444,"dy":0.0017,"dx":0.0017,"nx":28,"ny":28,"refTime":"2024-08-02T09:00:00:Z","depth":0,"parameterNumber":2,"parameterNumberName":"U-component_of_WINDS"},"data":[0,0,0,0,0,0,0,0,0,0,0,0,0,0,0,0,0,0,0,0,0,0,0,0,0,0,0,0,0,0,0,0,0,0,0,0,0,0,0,0,0,0,0,0,0,0,0,0,0,0,0,0,0,0,0,0,0,0,2.5272,2.5273,0,2.5365,2.5366,2.5367,2.5355,2.5353,2.5352,2.535,2.5448,2.5451,2.5455,0,0,0,0,0,0,0,0,0,0,0,0,0,2.5087,2.5091,2.5272,2.5274,2.5275,2.5365,2.5366,2.5367,2.5355,2.5353,2.5351,2.535,2.5446,2.5451,2.5456,0,0,0,0,0,0,0,0,0,0,0,0,0,2.5173,2.5092,2.5272,2.5279,2.5281,2.5364,2.5366,2.5367,2.5355,2.5353,2.5351,2.5349,2.5445,2.545,2.5456,2.5539,0,0,2.5475,2.5477,0,0,0,0,0,0,0,0,2.5168,2.5179,2.5277,2.5279,2.5281,2.5346,2.5336,2.5425,2.5356,2.5327,2.535,2.5348,2.5416,2.5424,2.5446,2.5544,2.5548,2.5475,2.5479,2.5482,2.5483,0,0,0,0,0,0,0,2.5162,2.5175,2.5309,2.5279,2.5281,2.5279,2.5288,2.5353,2.5383,2.533,2.5329,2.534,2.5416,2.5441,2.5449,2.5549,2.5475,2.548,2.5484,2.5487,2.5718,2.5721,0,0,0,0,0,0,2.5154,2.5171,2.5306,2.5312,2.5217,2.5284,2.5295,2.5327,2.5382,2.5389,2.5342,2.5339,2.5431,2.5442,2.5452,2.5551,2.5481,2.5487,2.5491,2.5716,2.5719,2.5722,0,0,0,0,0,0,2.515,2.5166,2.5302,2.5241,2.5258,2.5289,2.5326,2.533,2.5355,2.5392,2.5397,2.5361,2.543,2.5443,2.5517,2.5554,2.549,2.5495,2.5713,2.5717,2.572,2.5751,0,0,0,0,0,0,2.5145,2.5165,2.5196,2.5242,2.5261,2.5365,2.5329,2.5334,2.5365,2.5362,2.5411,2.5417,2.5429,2.5508,2.5523,2.5562,2.55,2.5709,2.5714,2.5719,2.5747,2.5756,2.5763,0,0,0,0,0,2.5138,2.5202,2.5198,2.5214,2.5301,2.5368,2.5379,2.5391,2.5368,2.54,2.5423,2.5415,2.5548,2.5516,2.5533,2.5573,2.5707,2.5713,2.5719,2.5743,2.5754,2.5763,0,0,0,0,0,0,2.5161,2.5208,2.5204,2.5284,2.5322,2.5365,2.5406,2.5402,2.5448,2.5443,2.5457,2.5468,2.5543,2.5566,2.5529,2.5656,2.5625,2.5634,2.5638,2.5648,2.5656,2.5648,2.5505,0,0,0,0,0,2.5175,2.5224,2.5263,2.5331,2.535,2.5375,2.5404,2.541,2.545,2.5466,2.5495,2.5535,2.5585,2.5618,2.5667,2.5751,2.5761,2.5787,2.5795,2.5801,2.5809,2.5853,2.5865,2.574,2.574,2.574,0,0,2.5205,2.5237,2.5268,2.5336,2.5366,2.5417,2.5388,2.5444,2.5481,2.5475,2.5545,2.5568,2.5613,2.5692,2.5728,2.5713,2.5846,2.5809,2.5813,2.5818,2.5861,2.5872,2.5883,2.5744,2.5744,2.5743,0,0,2.5286,2.5315,2.5374,2.5404,2.5449,2.5465,2.5479,2.5523,2.5538,2.5609,2.5604,2.565,2.5737,2.5769,2.5797,2.5889,2.5883,2.5905,2.5946,2.5989,2.5999,2.6008,2.6039,2.605,2.5912,2.5912,2.5912,0,2.5317,2.5393,2.5404,2.546,2.549,2.5485,2.5544,2.5574,2.5633,2.5654,2.5637,2.5745,2.5775,2.586,2.5882,2.5906,2.5922,2.5898,2.5996,2.6005,2.6014,2.6044,2.6055,2.5914,2.5914,2.5914,2.5914,0,2.5429,2.5482,2.5524,2.5579,2.5614,2.5672,2.5692,2.5726,2.5729,2.5747,2.5819,2.5855,2.591,2.5932,2.5936,2.6017,2.6007,2.5993,2.5962,2.6027,2.6056,2.6067,2.5918,2.5917,2.5916,2.5916,0,0,2.5525,2.5586,2.5601,2.5626,2.5675,2.5717,2.5774,2.5827,2.5855,2.5897,2.5944,2.6018,2.6005,2.6036,2.6044,2.6082,2.6151,2.6064,2.6065,2.6077,2.6241,2.625,2.6263,2.6148,2.615,2.6152,2.6237,0,2.5609,2.5709,2.572,2.5809,2.5857,2.5854,2.5904,2.5939,2.5958,2.6002,2.6023,2.6074,2.6054,2.6073,2.6111,2.6134,2.6184,2.6129,2.6192,2.6194,2.6178,2.6278,2.6287,2.6366,2.6248,2.625,2.6251,0,2.572,2.5762,2.5855,2.5897,2.5918,2.5962,2.6011,2.6054,2.6094,2.6105,2.614,2.6142,2.6201,2.6169,2.625,2.6212,2.6239,2.6255,2.6258,2.6263,2.6225,2.6284,2.6391,2.6402,2.6269,2.6268,2.6267,0,2.5778,2.5859,2.5925,2.5947,2.5998,2.6028,2.6051,2.609,2.612,2.6164,2.6184,2.6234,2.6261,2.63,2.6316,2.6291,2.6396,2.6365,2.6406,2.6405,2.6427,2.6425,2.6538,2.6447,2.6447,2.6447,2.6446,0,2.5869,2.5926,2.5952,2.5992,2.6055,2.6069,2.6132,2.6153,2.6187,2.6232,2.6233,2.6275,2.6295,2.634,2.6353,2.6418,2.6431,2.6441,2.6443,2.6439,2.6438,2.6456,2.645,2.645,2.6449,2.6449,2.6448,0,2.5944,2.5964,2.6035,2.6077,2.6089,2.6134,2.617,2.6209,2.6227,2.6284,2.6298,2.6327,2.638,2.64,2.6466,2.6474,2.6548,2.6547,2.6534,2.6534,2.6573,2.6568,2.67,2.6717,2.6617,2.6618,2.6619,0,2.6,2.6043,2.6089,2.6119,2.6142,2.619,2.6221,2.6237,2.6269,2.6318,2.6351,2.6404,2.6447,2.6532,2.6559,2.6608,2.6608,2.665,2.6615,2.6609,2.6606,2.6602,2.6606,2.6656,2.6657,2.6658,2.6659,0,2.6096,2.6103,2.6147,2.6195,2.6232,2.6271,2.6308,2.6333,2.6354,2.639,2.6444,2.6477,2.6543,2.6595,2.6646,2.667,2.6668,2.667,2.6682,2.6677,2.6667,2.6671,2.6549,2.6666,2.6666,2.6665,2.6665,2.6664,2.6162,2.6199,2.6237,2.6286,2.6316,2.6351,2.6389,2.6412,2.6457,2.6511,2.6518,2.6575,2.6614,2.6682,2.6709,2.6754,2.6742,2.676,2.6764,2.6768,2.6769,2.6661,2.6763,2.6763,2.6763,2.6763,2.6763,0,2.6256,2.628,2.6325,2.6377,2.6416,2.641,2.6452,2.6484,2.6534,2.6571,2.6613,2.6674,2.6724,2.6755,2.6806,2.6836,2.6836,2.6848,2.6845,2.685,2.6778,2.6761,2.6847,2.6847,2.6847,2.6847,2.6847,2.6847,2.6309,2.6372,2.6384,2.6462,2.6486,2.6542,2.6565,2.6598,2.6627,2.6694,2.6736,2.6756,2.679,2.6843,2.6889,2.6896,2.6914,2.6927,2.6934,2.6865,2.6856,2.6847,2.6832,2.6931,2.6932,2.7003,2.7003,2.7004]},{"header":{"parameterUnit":"m.s-1","parameterCategory":1,"la1":30.2991,"la2":30.254,"lo1":-89.0895,"lo2":-89.0444,"dy":0.0017,"dx":0.0017,"nx":28,"ny":28,"refTime":"2024-08-02T09:00:00:Z","depth":0,"parameterNumber":3,"parameterNumberName":"V-component_of_WINDS"},"data":[0,0,0,0,0,0,0,0,0,0,0,0,0,0,0,0,0,0,0,0,0,0,0,0,0,0,0,0,0,0,0,0,0,0,0,0,0,0,0,0,0,0,0,0,0,0,0,0,0,0,0,0,0,0,0,0,0,0,5.5504,5.5505,0,5.5646,5.5648,5.5649,5.5629,5.5626,5.5624,5.5622,5.5757,5.5763,5.5768,0,0,0,0,0,0,0,0,0,0,0,0,0,5.5202,5.5208,5.5504,5.5505,5.5507,5.5646,5.5648,5.565,5.5629,5.5626,5.5623,5.562,5.5755,5.5762,5.5769,0,0,0,0,0,0,0,0,0,0,0,0,0,5.5337,5.521,5.5503,5.5514,5.5516,5.5646,5.5648,5.565,5.563,5.5626,5.5622,5.5619,5.5753,5.5761,5.577,5.5895,0,0,5.5797,5.58,0,0,0,0,0,0,0,0,5.533,5.5348,5.551,5.5513,5.5516,5.5616,5.5591,5.5732,5.563,5.5586,5.5621,5.5617,5.5712,5.5724,5.5758,5.5901,5.5907,5.5797,5.5803,5.5806,5.5809,0,0,0,0,0,0,0,5.532,5.5342,5.556,5.5513,5.5516,5.5508,5.5523,5.5618,5.5667,5.559,5.5589,5.5606,5.5713,5.575,5.5761,5.5909,5.5797,5.5805,5.581,5.5814,5.6159,5.6163,0,0,0,0,0,0,5.531,5.5335,5.5555,5.5564,5.5413,5.5516,5.5533,5.5587,5.5666,5.5675,5.5609,5.5605,5.5737,5.5751,5.5766,5.5917,5.5806,5.5814,5.582,5.6155,5.616,5.6165,0,0,0,0,0,0,5.5303,5.533,5.5549,5.5449,5.5477,5.5525,5.5586,5.5592,5.5629,5.5681,5.5688,5.5639,5.5735,5.5754,5.5863,5.5921,5.5818,5.5826,5.6151,5.6157,5.6162,5.622,0,0,0,0,0,0,5.5295,5.5328,5.5378,5.5451,5.5482,5.5648,5.559,5.5598,5.5646,5.5641,5.5711,5.5719,5.5733,5.5851,5.5872,5.5931,5.5833,5.6146,5.6154,5.6161,5.6213,5.6227,5.6239,0,0,0,0,0,5.5284,5.5387,5.5381,5.5408,5.5547,5.5651,5.5669,5.5687,5.565,5.57,5.5733,5.5716,5.5912,5.5862,5.5886,5.5949,5.6142,5.6151,5.616,5.6207,5.6224,5.6239,0,0,0,0,0,0,5.5316,5.5396,5.5391,5.5521,5.558,5.5648,5.5711,5.5705,5.5773,5.5765,5.5781,5.5797,5.5908,5.5939,5.5882,5.6073,5.6021,5.6035,5.6049,5.6066,5.6078,5.6068,5.584,0,0,0,0,0,5.5339,5.5421,5.5485,5.5593,5.5623,5.5662,5.5708,5.5717,5.5778,5.5801,5.5842,5.5899,5.5972,5.6021,5.6091,5.6217,5.6231,5.6272,5.6285,5.6295,5.6307,5.6375,5.6393,5.6194,5.6194,5.6193,0,0,5.5385,5.5439,5.5489,5.5601,5.5648,5.5728,5.5683,5.5771,5.583,5.5813,5.5921,5.5952,5.6016,5.6134,5.6188,5.6163,5.6365,5.6307,5.6315,5.6321,5.6386,5.6404,5.6421,5.62,5.6199,5.6198,0,0,5.5512,5.5562,5.5658,5.5706,5.5779,5.5804,5.5827,5.5896,5.5918,5.6026,5.6016,5.6084,5.6211,5.6257,5.6297,5.644,5.6427,5.6462,5.653,5.6595,5.6611,5.6625,5.6675,5.6693,5.6474,5.6474,5.6474,0,5.556,5.5686,5.5706,5.5796,5.5844,5.5836,5.5931,5.5976,5.6066,5.6098,5.607,5.623,5.6272,5.64,5.6435,5.6468,5.6492,5.6454,5.6608,5.6622,5.6635,5.6683,5.6702,5.6478,5.6477,5.6477,5.6477,0,5.574,5.5827,5.5894,5.5986,5.6042,5.6133,5.6164,5.6217,5.6221,5.6248,5.6357,5.6407,5.6488,5.6519,5.6522,5.6647,5.663,5.6605,5.6553,5.6658,5.6703,5.6722,5.6483,5.6482,5.6481,5.648,0,0,5.5891,5.5994,5.6018,5.606,5.6139,5.6205,5.6294,5.6377,5.6421,5.6483,5.6557,5.6665,5.6642,5.6687,5.6695,5.6753,5.6862,5.6721,5.6722,5.6744,5.7001,5.7019,5.704,5.6854,5.6857,5.686,5.6995,0,5.6024,5.6188,5.6209,5.6352,5.6431,5.6424,5.6502,5.6557,5.6584,5.6652,5.668,5.6757,5.6722,5.6749,5.6806,5.6837,5.6913,5.6827,5.6919,5.6922,5.6904,5.7064,5.7084,5.721,5.7013,5.7016,5.7018,0,5.6203,5.6274,5.6426,5.6495,5.6528,5.6599,5.6675,5.6741,5.6802,5.6818,5.6869,5.6869,5.6958,5.6903,5.7024,5.6965,5.7004,5.7024,5.703,5.7039,5.6977,5.7077,5.725,5.7269,5.7047,5.7044,5.7042,0,5.6296,5.643,5.6538,5.6573,5.6656,5.6706,5.6741,5.68,5.6848,5.6913,5.6944,5.7017,5.7057,5.7113,5.7132,5.709,5.7251,5.7198,5.7264,5.7264,5.7298,5.7296,5.748,5.7324,5.7324,5.7323,5.7323,0,5.6443,5.6536,5.6582,5.6648,5.6751,5.6773,5.6872,5.6906,5.6957,5.7027,5.7024,5.7089,5.7111,5.7179,5.7193,5.7291,5.7309,5.7321,5.7324,5.7322,5.732,5.7347,5.7338,5.7328,5.7327,5.7326,5.7325,0,5.6565,5.66,5.6717,5.6787,5.6807,5.6879,5.6937,5.6999,5.7026,5.7114,5.7136,5.7176,5.7256,5.7281,5.7375,5.7385,5.7499,5.7493,5.7479,5.7479,5.7544,5.7537,5.7751,5.778,5.7606,5.7607,5.7609,0,5.6657,5.6729,5.6807,5.6856,5.6895,5.6973,5.7023,5.7046,5.7097,5.7172,5.7224,5.7304,5.7369,5.7495,5.7531,5.7603,5.7599,5.7669,5.7609,5.7605,5.7599,5.7595,5.7601,5.768,5.7682,5.7683,5.7684,0,5.6815,5.6829,5.6903,5.6983,5.7044,5.7107,5.7167,5.7206,5.7237,5.7294,5.7378,5.7428,5.7527,5.7605,5.7678,5.771,5.7702,5.7703,5.7722,5.772,5.7709,5.7715,5.7509,5.7698,5.7696,5.7695,5.7695,5.7694,5.6924,5.6988,5.7053,5.7135,5.7184,5.7241,5.7304,5.7339,5.741,5.7495,5.7502,5.7592,5.7649,5.7747,5.7784,5.7851,5.7831,5.7858,5.7865,5.7872,5.7877,5.7699,5.7865,5.7864,5.7864,5.7864,5.7863,0,5.7081,5.7124,5.7199,5.7286,5.735,5.7341,5.7407,5.746,5.754,5.7596,5.7661,5.7756,5.7831,5.7873,5.7948,5.7994,5.7992,5.8013,5.8009,5.8016,5.7891,5.7867,5.8013,5.8013,5.8013,5.8013,5.8013,5.8013,5.7171,5.7278,5.7299,5.7429,5.747,5.7561,5.7599,5.7651,5.7696,5.7803,5.7867,5.7896,5.7945,5.8023,5.8091,5.8101,5.8128,5.8151,5.8159,5.8041,5.8025,5.8011,5.7988,5.8157,5.8157,5.8278,5.8279,5.828]}]]